DW6462 Weather Reports


Display with metric or nautical units.
time (UTC)temp
F
wind
direction
speed
MPH
gust
MPH
rain 1hr
in
rain 24hr
in
rain mn
in
humidity
%
barometer
mb
20260905234339 89 253 0.0 1.0 0.00 0.00 0.00 75 1009.1
20260905233834 90 260 0.0 0.0 0.00 0.00 0.00 74 1009.0
20260905233348 90 260 0.0 0.0 0.00 0.00 0.00 73 1009.0
20260905232840 91 260 0.0 0.0 0.00 0.00 0.00 73 1009.0
20260905232338 92 260 0.0 0.0 0.00 0.00 0.00 71 1009.0
20260905231351 93 260 0.0 1.0 0.00 0.00 0.00 68 1009.0
20260905225838 95 260 0.0 1.0 0.00 0.00 0.00 66 1009.1
20260905225334 96 260 0.0 1.0 0.00 0.00 0.00 65 1009.1
20260905224849 96 260 0.0 2.0 0.00 0.00 0.00 64 1009.1
20260905224343 95 310 0.0 3.0 0.00 0.00 0.00 59 1009.2
20260905223839 96 311 1.0 3.0 0.00 0.00 0.00 61 1009.2
20260905223354 96 267 0.0 3.0 0.00 0.00 0.00 57 1009.2
20260905222847 96 277 0.0 4.0 0.00 0.00 0.00 61 1009.2
20260905222341 97 265 3.0 4.0 0.00 0.00 0.00 55 1009.0
20260905221834 97 234 2.0 5.0 0.00 0.00 0.00 53 1009.0
20260905221349 97 296 3.0 5.0 0.00 0.00 0.00 52 1009.1
20260905220843 97 242 4.0 5.0 0.00 0.00 0.00 53 1009.0
20260905220337 97 268 1.0 4.0 0.00 0.00 0.00 51 1009.0
20260905215852 97 277 2.0 5.0 0.00 0.00 0.00 50 1009.1
20260905214843 97 262 2.0 4.0 0.00 0.00 0.00 51 1009.2
20260905213852 98 290 1.0 5.0 0.00 0.00 0.00 51 1009.4
20260905213347 97 275 4.0 5.0 0.00 0.00 0.00 55 1009.4
20260905212842 97 263 4.0 5.0 0.00 0.00 0.00 53 1009.4
20260905212341 98 252 2.0 4.0 0.00 0.00 0.00 51 1009.5
20260905211833 98 282 1.0 5.0 0.00 0.00 0.00 50 1009.5
20260905210844 97 268 3.0 4.0 0.00 0.00 0.00 54 1009.5
20260905210340 97 245 2.0 7.0 0.00 0.00 0.00 53 1009.5
20260905205835 97 294 3.0 7.0 0.00 0.00 0.00 55 1009.5
20260905205347 97 235 3.0 4.0 0.00 0.00 0.00 52 1009.7
20260905204841 97 240 3.0 4.0 0.00 0.00 0.00 52 1009.7
20260905204338 97 228 3.0 5.0 0.00 0.00 0.00 51 1009.8
20260905203833 97 232 2.0 5.0 0.00 0.00 0.00 55 1009.7
20260905203349 98 236 3.0 5.0 0.00 0.00 0.00 54 1009.8
20260905202845 98 204 1.0 4.0 0.00 0.00 0.00 50 1009.9
20260905202342 98 221 1.0 6.0 0.00 0.00 0.00 53 1009.9
20260905201337 98 222 2.0 6.0 0.00 0.00 0.00 56 1010.0
20260905200834 97 236 0.0 6.0 0.00 0.00 0.00 56 1010.1
20260905200351 97 246 3.0 6.0 0.00 0.00 0.00 55 1010.1
20260905195845 97 213 4.0 6.0 0.00 0.00 0.00 54 1010.3
20260905194333 98 217 2.0 4.0 0.00 0.00 0.00 54 1010.5
20260905193847 98 234 0.0 6.0 0.00 0.00 0.00 52 1010.6
20260905193345 97 234 0.0 6.0 0.00 0.00 0.00 56 1010.6
20260905192841 96 220 0.0 0.0 0.00 0.00 0.00 57 1010.8
20260905192336 96 238 0.0 0.0 0.00 0.00 0.00 55 1010.8
20260905191850 96 251 0.0 0.0 0.00 0.00 0.00 53 1010.9
20260905191345 97 252 0.0 0.0 0.00 0.00 0.00 54 1011.0
20260905190840 97 234 0.0 0.0 0.00 0.00 0.00 55 1011.2
20260905185852 96 227 0.0 0.0 0.00 0.00 0.00 53 1011.2
20260905185348 96 187 0.0 0.0 0.00 0.00 0.00 56 1011.2
20260905184843 96 208 0.0 0.0 0.00 0.00 0.00 56 1011.2
20260905184338 96 229 0.0 0.0 0.00 0.00 0.00 57 1011.3
20260905183852 96 246 0.0 0.0 0.00 0.00 0.00 54 1011.3
20260905183346 96 240 0.0 0.0 0.00 0.00 0.00 55 1011.3
20260905182838 96 252 0.0 0.0 0.00 0.00 0.00 55 1011.4
20260905182333 95 324 0.0 0.0 0.00 0.00 0.00 53 1011.5
20260905181848 95 342 0.0 0.0 0.00 0.00 0.00 53 1011.5
20260905181344 95 323 0.0 0.0 0.00 0.00 0.00 53 1011.7
20260905180839 96 9 0.0 0.0 0.00 0.00 0.00 54 1011.7
20260905180337 95 329 0.0 0.0 0.00 0.00 0.00 55 1011.8
20260905175852 95 319 0.0 0.0 0.00 0.00 0.00 56 1011.9
20260905175346 95 334 0.0 0.0 0.00 0.00 0.00 57 1011.8
20260905174842 95 334 0.0 0.0 0.00 0.00 0.00 56 1011.9
20260905173834 95 235 0.0 0.0 0.00 0.00 0.00 56 1012.0
20260905173349 95 235 0.0 0.0 0.00 0.00 0.00 57 1012.1
20260905172844 95 253 0.0 0.0 0.00 0.00 0.00 59 1012.2
20260905172337 94 217 0.0 0.0 0.00 0.00 0.00 57 1012.3
20260905171834 95 252 0.0 0.0 0.00 0.00 0.00 58 1012.3
20260905171349 94 261 0.0 0.0 0.00 0.00 0.00 60 1012.3
20260905170843 94 228 0.0 0.0 0.00 0.00 0.00 62 1012.3
20260905170336 94 225 0.0 0.0 0.00 0.00 0.00 62 1012.5
20260905165347 94 236 0.0 0.0 0.00 0.00 0.00 62 1012.5
20260905164336 93 236 0.0 0.0 0.00 0.00 0.00 63 1012.5
20260905163851 93 232 0.0 0.0 0.00 0.00 0.00 64 1012.6
20260905163345 92 214 0.0 0.0 0.00 0.00 0.00 65 1012.6
20260905162841 92 214 0.0 0.0 0.00 0.00 0.00 66 1012.6
20260905161851 92 214 0.0 0.0 0.00 0.00 0.00 65 1012.7
20260905161345 91 214 0.0 0.0 0.00 0.00 0.00 67 1012.7
20260905160843 91 240 0.0 0.0 0.00 0.00 0.00 68 1012.7
20260905160338 91 219 0.0 0.0 0.00 0.00 0.00 68 1012.8
20260905155836 90 264 0.0 0.0 0.00 0.00 0.00 71 1012.8
20260905155350 90 264 0.0 0.0 0.00 0.00 0.00 74 1012.8
20260905154845 89 264 0.0 0.0 0.00 0.00 0.00 76 1012.8
20260905154340 89 264 0.0 0.0 0.00 0.00 0.00 75 1012.8
20260905153835 88 264 0.0 0.0 0.00 0.00 0.00 76 1012.9
20260905153352 88 264 0.0 0.0 0.00 0.00 0.00 76 1012.9
20260905152846 88 264 0.0 0.0 0.00 0.00 0.00 76 1013.0
20260905152339 88 264 0.0 0.0 0.00 0.00 0.00 76 1013.0
20260905151853 88 264 0.0 0.0 0.00 0.00 0.00 77 1013.0
20260905151348 87 264 0.0 0.0 0.00 0.00 0.00 78 1013.0
20260905150843 87 264 0.0 0.0 0.00 0.00 0.00 79 1013.0
20260905150337 86 264 0.0 0.0 0.00 0.00 0.00 80 1013.0
20260905145850 86 264 0.0 0.0 0.00 0.00 0.00 80 1013.0
20260905144840 85 264 0.0 0.0 0.00 0.00 0.00 82 1013.0
20260905143850 85 315 0.0 0.0 0.00 0.00 0.00 81 1013.1
20260905143344 85 315 0.0 0.0 0.00 0.00 0.00 81 1013.1
20260905142841 85 315 0.0 0.0 0.00 0.00 0.00 81 1013.0
20260905142336 84 315 0.0 0.0 0.00 0.00 0.00 82 1013.0
20260905141850 84 315 0.0 0.0 0.00 0.00 0.00 81 1013.0
20260905141348 83 315 0.0 0.0 0.00 0.00 0.00 82 1013.0
20260905140842 83 315 0.0 0.0 0.00 0.00 0.00 82 1013.0
20260905140337 83 315 0.0 0.0 0.00 0.00 0.00 82 1013.0
20260905135347 82 315 0.0 0.0 0.00 0.00 0.00 85 1013.0
20260905134842 81 315 0.0 0.0 0.00 0.00 0.00 88 1013.0
20260905133351 79 315 0.0 0.0 0.00 0.00 0.00 94 1013.0
20260905132846 79 315 0.0 0.0 0.00 0.00 0.00 96 1013.0
20260905132343 78 315 0.0 0.0 0.00 0.00 0.00 97 1013.0
20260905131838 78 315 0.0 0.0 0.00 0.00 0.00 97 1013.0
20260905131353 78 315 0.0 0.0 0.00 0.00 0.00 97 1013.0
20260905130846 77 315 0.0 0.0 0.00 0.00 0.00 97 1013.0
20260905130341 77 315 0.0 0.0 0.00 0.00 0.00 97 1013.0
20260905125837 77 315 0.0 0.0 0.00 0.00 0.00 97 1013.0
20260905125350 76 315 0.0 0.0 0.00 0.00 0.00 97 1013.0
20260905124845 76 315 0.0 0.0 0.00 0.00 0.00 98 1012.9
20260905124343 76 315 0.0 0.0 0.00 0.00 0.00 97 1012.8
20260905123836 75 315 0.0 0.0 0.00 0.00 0.00 97 1012.8
20260905123352 75 315 0.0 0.0 0.00 0.00 0.00 97 1012.8
20260905122847 75 315 0.0 0.0 0.00 0.00 0.00 97 1012.8
20260905122339 75 315 0.0 0.0 0.00 0.00 0.00 97 1012.8
20260905121834 75 315 0.0 0.0 0.00 0.00 0.00 97 1012.8
20260905121348 75 315 0.0 0.0 0.00 0.00 0.00 97 1012.7
20260905120844 75 315 0.0 0.0 0.00 0.00 0.00 97 1012.7
20260905120339 75 315 0.0 0.0 0.00 0.00 0.00 97 1012.7
20260905115834 75 315 0.0 0.0 0.00 0.00 0.00 98 1012.6
20260905115350 75 315 0.0 0.0 0.00 0.00 0.00 97 1012.6
20260905114846 75 315 0.0 0.0 0.00 0.00 0.00 97 1012.5
20260905113837 75 315 0.0 0.0 0.00 0.00 0.00 97 1012.4
20260905113350 75 315 0.0 0.0 0.00 0.00 0.00 97 1012.3
20260905112845 75 315 0.0 0.0 0.00 0.00 0.00 97 1012.4
20260905111835 75 315 0.0 0.0 0.00 0.00 0.00 97 1012.2
20260905111350 75 315 0.0 0.0 0.00 0.00 0.00 97 1012.1
20260905110845 75 315 0.0 0.0 0.00 0.00 0.00 98 1012.2
20260905110345 75 315 0.0 0.0 0.00 0.00 0.00 97 1012.1
20260905105842 75 315 0.0 0.0 0.00 0.00 0.00 97 1012.1
20260905105338 75 315 0.0 0.0 0.00 0.00 0.00 97 1012.1
20260905104852 75 315 0.0 0.0 0.00 0.00 0.00 97 1012.1
20260905104347 75 315 0.0 0.0 0.00 0.00 0.00 97 1012.1
20260905103842 75 315 0.0 0.0 0.00 0.00 0.00 97 1012.1
20260905102835 75 315 0.0 0.0 0.00 0.00 0.00 97 1012.0
20260905102352 75 315 0.0 0.0 0.00 0.00 0.00 97 1012.0
20260905101848 76 315 0.0 0.0 0.00 0.00 0.00 97 1011.9
20260905101343 76 315 0.0 0.0 0.00 0.00 0.00 97 1011.9
20260905100840 76 315 0.0 0.0 0.00 0.00 0.00 97 1012.0
20260905100336 76 315 0.0 0.0 0.00 0.00 0.00 97 1011.9
20260905095350 76 315 0.0 0.0 0.00 0.00 0.00 97 1011.8
20260905094845 77 315 0.0 0.0 0.00 0.00 0.00 97 1011.8
20260905094341 77 315 0.0 0.0 0.00 0.00 0.00 97 1011.7
20260905093836 77 315 0.0 0.0 0.00 0.00 0.00 97 1011.6
20260905093335 77 315 0.0 0.0 0.00 0.00 0.00 97 1011.6
20260905092347 76 315 0.0 0.0 0.00 0.00 0.00 97 1011.7
20260905091843 76 315 0.0 0.0 0.00 0.00 0.00 97 1011.6
20260905091338 76 315 0.0 0.0 0.00 0.00 0.00 97 1011.6
20260905090834 76 315 0.0 0.0 0.00 0.00 0.00 97 1011.6
20260905090349 76 315 0.0 0.0 0.00 0.00 0.00 97 1011.7
20260905085845 76 315 0.0 0.0 0.00 0.00 0.00 97 1011.8
20260905085339 77 315 0.0 0.0 0.00 0.00 0.00 97 1011.7
20260905084852 77 315 0.0 0.0 0.00 0.00 0.00 97 1011.8
20260905084348 77 315 0.0 0.0 0.00 0.00 0.00 97 1011.7
20260905083843 77 315 0.0 0.0 0.00 0.00 0.00 97 1011.7
20260905083337 77 315 0.0 0.0 0.00 0.00 0.00 97 1011.7
20260905082834 77 315 0.0 0.0 0.00 0.00 0.00 97 1011.7
20260905081843 77 315 0.0 0.0 0.00 0.00 0.00 97 1011.7
20260905081339 77 315 0.0 0.0 0.00 0.00 0.00 97 1011.7
20260905080853 77 315 0.0 0.0 0.00 0.00 0.00 97 1011.6
20260905080350 77 315 0.0 0.0 0.00 0.00 0.00 97 1011.6
20260905075846 77 315 0.0 0.0 0.00 0.00 0.00 97 1011.6
20260905075346 77 315 0.0 0.0 0.00 0.00 0.00 97 1011.7
20260905074841 77 315 0.0 0.0 0.00 0.00 0.00 96 1011.7
20260905074353 77 315 0.0 0.0 0.00 0.00 0.00 97 1011.7
20260905073845 78 315 0.0 0.0 0.00 0.00 0.00 97 1011.7
20260905073341 78 315 0.0 0.0 0.00 0.00 0.00 97 1011.7
20260905072333 78 315 0.0 0.0 0.00 0.00 0.00 97 1011.7
20260905071850 78 315 0.0 0.0 0.00 0.00 0.00 97 1011.7
20260905071345 78 315 0.0 0.0 0.00 0.00 0.00 97 1011.8
20260905070840 78 315 0.0 0.0 0.00 0.00 0.00 97 1011.8
20260905070336 78 315 0.0 0.0 0.00 0.00 0.00 97 1011.8
20260905065345 77 315 0.0 0.0 0.00 0.00 0.00 96 1011.9
20260905064838 77 315 0.0 0.0 0.00 0.00 0.00 96 1011.9
20260905063847 78 315 0.0 0.0 0.00 0.00 0.00 96 1012.0
20260905063340 78 315 0.0 0.0 0.00 0.00 0.00 96 1011.9
20260905062835 78 315 0.0 0.0 0.00 0.00 0.00 96 1012.0
20260905061846 78 315 0.0 0.0 0.00 0.00 0.00 96 1012.1
20260905061341 78 315 0.0 0.0 0.00 0.00 0.00 96 1012.1
20260905060838 78 315 0.0 0.0 0.00 0.00 0.00 96 1012.0
20260905060337 78 315 0.0 0.0 0.00 0.00 0.00 96 1012.0
20260905055851 78 315 0.0 0.0 0.00 0.00 0.00 96 1012.0
20260905054844 79 315 0.0 0.0 0.00 0.00 0.00 96 1012.1
20260905054340 79 315 0.0 0.0 0.00 0.00 0.00 96 1012.2
20260905053836 79 315 0.0 0.0 0.00 0.00 0.00 96 1012.1
20260905053351 79 315 0.0 0.0 0.00 0.00 0.00 96 1012.1
20260905052845 79 315 0.0 0.0 0.00 0.00 0.00 96 1012.2
20260905052341 79 315 0.0 0.0 0.00 0.00 0.00 96 1012.2
20260905051837 79 315 0.0 0.0 0.00 0.00 0.00 96 1012.2
20260905050846 79 315 0.0 0.0 0.00 0.00 0.00 96 1012.3
20260905050339 79 315 0.0 0.0 0.00 0.00 0.00 96 1012.3
20260905045351 79 315 0.0 0.0 0.00 0.00 0.00 95 1012.2
20260905044845 79 268 0.0 0.0 0.00 0.00 0.00 95 1012.2
20260905044337 79 268 0.0 0.0 0.00 0.00 0.00 95 1012.3
20260905043349 79 268 0.0 0.0 0.00 0.00 0.00 95 1012.2
20260905042841 80 268 0.0 0.0 0.00 0.00 0.00 95 1012.2
20260905041852 81 268 0.0 0.0 0.00 0.00 0.00 95 1012.2
20260905041348 81 268 0.0 0.0 0.00 0.00 0.00 96 1012.1
20260905040343 81 268 0.0 0.0 0.00 0.00 0.00 96 1012.2
20260905035340 81 268 0.0 0.0 0.00 0.00 0.00 95 1012.3
20260905034836 81 268 0.0 0.0 0.00 0.00 0.00 95 1012.3
20260905034351 81 268 0.0 0.0 0.00 0.00 0.00 96 1012.2
20260905033844 81 268 0.0 0.0 0.00 0.00 0.00 95 1012.2
20260905033339 81 268 0.0 0.0 0.00 0.00 0.00 95 1012.2
20260905032833 81 268 0.0 0.0 0.00 0.00 0.00 95 1012.2
20260905032349 81 268 0.0 0.0 0.00 0.00 0.00 95 1012.3
20260905031844 81 268 0.0 0.0 0.00 0.00 0.00 95 1012.4
20260905031338 81 268 0.0 0.0 0.00 0.00 0.00 95 1012.5
20260905030851 81 268 0.0 0.0 0.00 0.00 0.00 95 1012.5
20260905030347 80 268 0.0 0.0 0.00 0.00 0.00 94 1012.5
20260905025842 80 268 0.0 0.0 0.00 0.00 0.00 94 1012.6
20260905025335 81 268 0.0 0.0 0.00 0.00 0.00 94 1012.5
20260905023846 81 268 0.0 0.0 0.00 0.00 0.00 94 1012.5
20260905023340 81 268 0.0 0.0 0.00 0.00 0.00 93 1012.4
20260905022836 82 268 0.0 0.0 0.00 0.00 0.00 93 1012.4
20260905022351 82 268 0.0 0.0 0.00 0.00 0.00 93 1012.4
20260905021344 82 268 0.0 0.0 0.00 0.00 0.00 93 1012.5
20260905020342 82 268 0.0 0.0 0.00 0.00 0.00 92 1012.4
20260905015334 82 268 0.0 0.0 0.00 0.00 0.00 92 1012.4
20260905014848 82 268 0.0 0.0 0.00 0.00 0.00 91 1012.3
20260905014341 83 268 0.0 0.0 0.00 0.00 0.00 91 1012.2
20260905013835 83 268 0.0 0.0 0.00 0.00 0.00 90 1012.2
20260905013349 83 268 0.0 0.0 0.00 0.00 0.00 90 1012.1
20260905012843 83 268 0.0 0.0 0.00 0.00 0.00 89 1012.0
20260905012338 83 268 0.0 0.0 0.00 0.00 0.00 89 1012.0
20260905011348 84 268 0.0 0.0 0.00 0.00 0.00 88 1011.9
20260905010339 84 268 0.0 0.0 0.00 0.00 0.00 88 1011.8
20260905005833 84 268 0.0 0.0 0.00 0.00 0.00 88 1011.8
20260905005347 84 268 0.0 0.0 0.00 0.00 0.00 88 1011.7
20260905004845 84 268 0.0 0.0 0.00 0.00 0.00 87 1011.7
20260905004338 85 268 0.0 0.0 0.00 0.00 0.00 87 1011.7
20260905003351 86 268 0.0 0.0 0.00 0.00 0.00 85 1011.6
20260905002845 86 268 0.0 0.0 0.00 0.00 0.00 84 1011.6
20260905002340 86 268 0.0 0.0 0.00 0.00 0.00 84 1011.4
20260905001835 87 268 0.0 0.0 0.00 0.00 0.00 83 1011.3
20260905001334 87 268 0.0 0.0 0.00 0.00 0.00 83 1011.3
20260905000849 88 268 0.0 0.0 0.00 0.00 0.00 81 1011.3
20260905000344 88 268 0.0 0.0 0.00 0.00 0.00 80 1011.4
20260904235838 89 268 0.0 0.0 0.00 0.00 0.00 80 1011.4
20260904235333 89 268 0.0 0.0 0.00 0.00 0.00 80 1011.4
20260904234848 89 268 0.0 0.0 0.00 0.00 0.00 77 1011.3